[[{"header":{"parameterUnit":"m.s-1","parameterCategory":1,"la1":30.2991,"la2":30.254,"lo1":-89.0895,"lo2":-89.0444,"dy":0.0017,"dx":0.0017,"nx":28,"ny":28,"refTime":"2024-07-05T09:00:00:Z","depth":0,"parameterNumber":2,"parameterNumberName":"U-component_of_WINDS"},"data":[0,0,0,0,0,0,0,0,0,0,0,0,0,0,0,0,0,0,0,0,0,0,0,0,0,0,0,0,0,0,0,0,0,0,0,0,0,0,0,0,0,0,0,0,0,0,0,0,0,0,0,0,0,0,0,0,0,0,-0.3286,-0.3285,0,-0.3219,-0.3219,-0.3218,-0.3238,-0.3239,-0.324,-0.3242,-0.3164,-0.316,-0.3157,0,0,0,0,0,0,0,0,0,0,0,0,0,-0.3421,-0.3418,-0.3286,-0.3285,-0.3284,-0.322,-0.3219,-0.3218,-0.3237,-0.3239,-0.3241,-0.3242,-0.3165,-0.3161,-0.3157,0,0,0,0,0,0,0,0,0,0,0,0,0,-0.3359,-0.3417,-0.3286,-0.3287,-0.3286,-0.322,-0.3219,-0.3217,-0.3237,-0.3239,-0.3241,-0.3243,-0.3166,-0.3161,-0.3156,-0.3082,0,0,-0.3141,-0.3138,0,0,0,0,0,0,0,0,-0.3362,-0.3354,-0.3287,-0.3286,-0.3286,-0.3239,-0.3238,-0.3172,-0.3236,-0.3255,-0.3242,-0.3244,-0.3186,-0.318,-0.3162,-0.3079,-0.3075,-0.314,-0.3137,-0.3135,-0.3133,0,0,0,0,0,0,0,-0.3366,-0.3357,-0.3259,-0.3286,-0.3285,-0.3287,-0.3281,-0.3225,-0.3209,-0.3254,-0.3255,-0.3247,-0.3186,-0.3167,-0.3161,-0.3074,-0.314,-0.3136,-0.3133,-0.3131,-0.2924,-0.2922,0,0,0,0,0,0,-0.3373,-0.336,-0.3262,-0.3257,-0.333,-0.3283,-0.3276,-0.3252,-0.321,-0.3206,-0.3246,-0.3249,-0.3175,-0.3167,-0.3158,-0.3067,-0.3135,-0.313,-0.3127,-0.2926,-0.2923,-0.2921,0,0,0,0,0,0,-0.3375,-0.3364,-0.3264,-0.3309,-0.3297,-0.3278,-0.3251,-0.3249,-0.323,-0.3204,-0.3201,-0.323,-0.3176,-0.3165,-0.3101,-0.3064,-0.3128,-0.3123,-0.2929,-0.2925,-0.2922,-0.2885,0,0,0,0,0,0,-0.3379,-0.3365,-0.3339,-0.3309,-0.3294,-0.3211,-0.3249,-0.3247,-0.3223,-0.3226,-0.3188,-0.3184,-0.3177,-0.3109,-0.3096,-0.3058,-0.3119,-0.2932,-0.2928,-0.2923,-0.2889,-0.2881,-0.2873,0,0,0,0,0,-0.3384,-0.3329,-0.3337,-0.3325,-0.3262,-0.3209,-0.3201,-0.3197,-0.322,-0.3192,-0.3175,-0.3185,-0.3071,-0.3102,-0.3088,-0.3048,-0.2935,-0.2929,-0.2924,-0.2893,-0.2882,-0.2873,0,0,0,0,0,0,-0.3352,-0.3325,-0.3334,-0.3269,-0.3241,-0.3213,-0.3177,-0.3186,-0.3149,-0.3153,-0.3147,-0.3138,-0.3072,-0.3054,-0.3089,-0.2973,-0.3006,-0.2997,-0.2987,-0.2977,-0.2969,-0.2973,-0.3115,0,0,0,0,0,-0.3338,-0.3301,-0.3278,-0.3222,-0.3209,-0.3196,-0.3172,-0.3172,-0.3142,-0.313,-0.3108,-0.3076,-0.3033,-0.3004,-0.2963,-0.2888,-0.2878,-0.2853,-0.2845,-0.2839,-0.283,-0.2786,-0.2774,-0.2903,-0.2903,-0.2903,0,0,-0.3307,-0.3288,-0.3264,-0.3216,-0.3195,-0.3152,-0.3186,-0.314,-0.3108,-0.3122,-0.306,-0.3043,-0.3007,-0.2936,-0.2904,-0.2919,-0.2793,-0.2832,-0.2827,-0.2822,-0.2779,-0.2767,-0.2756,-0.2899,-0.29,-0.29,0,0,-0.323,-0.3213,-0.3164,-0.3143,-0.3112,-0.3103,-0.3091,-0.3062,-0.3052,-0.2991,-0.3,-0.296,-0.2887,-0.286,-0.2836,-0.2749,-0.2755,-0.2735,-0.2691,-0.2648,-0.2638,-0.2629,-0.2594,-0.2582,-0.2728,-0.2728,-0.2728,0,-0.3194,-0.3135,-0.3137,-0.309,-0.3067,-0.3082,-0.303,-0.3008,-0.2963,-0.2945,-0.2965,-0.2872,-0.2849,-0.277,-0.2749,-0.2731,-0.2714,-0.2738,-0.264,-0.2631,-0.2622,-0.2589,-0.2576,-0.2725,-0.2725,-0.2726,-0.2726,0,-0.3092,-0.305,-0.3013,-0.2973,-0.2946,-0.2897,-0.2888,-0.286,-0.2862,-0.285,-0.2786,-0.276,-0.2712,-0.2694,-0.2695,-0.2615,-0.2625,-0.2642,-0.2674,-0.2607,-0.2576,-0.2563,-0.2722,-0.2723,-0.2723,-0.2724,0,0,-0.299,-0.2953,-0.2939,-0.292,-0.2887,-0.2852,-0.2803,-0.276,-0.2734,-0.2703,-0.2659,-0.2597,-0.2612,-0.2586,-0.2583,-0.2546,-0.2474,-0.2567,-0.2566,-0.2547,-0.2381,-0.2366,-0.2352,-0.248,-0.2478,-0.2476,-0.2383,0,-0.2907,-0.2823,-0.2823,-0.2744,-0.2703,-0.2717,-0.2673,-0.2646,-0.2634,-0.2596,-0.2581,-0.2536,-0.2562,-0.2545,-0.2509,-0.2491,-0.244,-0.2498,-0.2434,-0.2432,-0.244,-0.2336,-0.232,-0.2234,-0.2371,-0.2369,-0.2367,0,-0.2799,-0.2767,-0.2685,-0.2656,-0.2639,-0.26,-0.256,-0.2524,-0.2493,-0.2486,-0.2457,-0.2461,-0.2406,-0.2443,-0.2365,-0.2405,-0.2379,-0.2366,-0.2362,-0.2353,-0.2393,-0.232,-0.2207,-0.2192,-0.2349,-0.235,-0.2352,0,-0.2728,-0.2665,-0.2607,-0.2591,-0.2557,-0.2529,-0.2513,-0.2485,-0.2458,-0.2422,-0.2404,-0.2361,-0.2337,-0.2302,-0.2292,-0.232,-0.2213,-0.225,-0.2203,-0.2203,-0.2177,-0.2178,-0.2054,-0.2166,-0.2166,-0.2167,-0.2167,0,-0.2634,-0.2582,-0.2575,-0.2539,-0.248,-0.248,-0.2421,-0.2407,-0.2381,-0.234,-0.2349,-0.2309,-0.23,-0.2258,-0.2249,-0.2185,-0.2174,-0.2164,-0.2162,-0.2162,-0.2162,-0.2142,-0.2146,-0.2163,-0.2164,-0.2165,-0.2165,0,-0.2544,-0.2538,-0.2476,-0.245,-0.2442,-0.2399,-0.2376,-0.2339,-0.2329,-0.2277,-0.2264,-0.2247,-0.2197,-0.2185,-0.2125,-0.2119,-0.2042,-0.2047,-0.2053,-0.2052,-0.2005,-0.2008,-0.186,-0.1839,-0.1969,-0.1968,-0.1967,0,-0.2483,-0.2444,-0.2414,-0.2389,-0.2372,-0.2331,-0.2305,-0.2303,-0.2274,-0.2235,-0.2203,-0.2155,-0.2116,-0.2036,-0.2015,-0.1969,-0.1971,-0.1922,-0.1963,-0.1963,-0.1965,-0.1967,-0.1961,-0.1913,-0.1911,-0.191,-0.191,0,-0.2373,-0.2372,-0.2336,-0.2298,-0.2267,-0.2236,-0.2207,-0.2184,-0.2178,-0.2145,-0.2096,-0.2066,-0.2006,-0.1957,-0.1911,-0.189,-0.1896,-0.1898,-0.1883,-0.188,-0.1884,-0.1878,-0.2028,-0.19,-0.1901,-0.1901,-0.1902,-0.1902,-0.2293,-0.2258,-0.2232,-0.219,-0.2169,-0.2141,-0.2105,-0.2092,-0.2052,-0.2005,-0.2006,-0.1951,-0.1918,-0.1857,-0.1834,-0.1789,-0.1803,-0.1784,-0.1778,-0.1773,-0.1767,-0.1895,-0.1781,-0.1781,-0.1781,-0.1782,-0.1782,0,-0.218,-0.2165,-0.2127,-0.2087,-0.2053,-0.2068,-0.2035,-0.2005,-0.1958,-0.1929,-0.1892,-0.1834,-0.1787,-0.1763,-0.1715,-0.1683,-0.1685,-0.167,-0.1671,-0.1665,-0.1759,-0.1774,-0.167,-0.167,-0.167,-0.167,-0.167,-0.167,-0.2118,-0.2059,-0.2055,-0.1983,-0.1967,-0.1917,-0.1897,-0.187,-0.1846,-0.1783,-0.1744,-0.1731,-0.1703,-0.1653,-0.1609,-0.1603,-0.1583,-0.1566,-0.1561,-0.1648,-0.1659,-0.167,-0.1684,-0.1562,-0.1562,-0.1471,-0.147,-0.1469]},{"header":{"parameterUnit":"m.s-1","parameterCategory":1,"la1":30.2991,"la2":30.254,"lo1":-89.0895,"lo2":-89.0444,"dy":0.0017,"dx":0.0017,"nx":28,"ny":28,"refTime":"2024-07-05T09:00:00:Z","depth":0,"parameterNumber":3,"parameterNumberName":"V-component_of_WINDS"},"data":[0,0,0,0,0,0,0,0,0,0,0,0,0,0,0,0,0,0,0,0,0,0,0,0,0,0,0,0,0,0,0,0,0,0,0,0,0,0,0,0,0,0,0,0,0,0,0,0,0,0,0,0,0,0,0,0,0,0,2.1777,2.1776,0,2.1666,2.1665,2.1663,2.1555,2.1554,2.1552,2.1551,2.1432,2.1431,2.1429,0,0,0,0,0,0,0,0,0,0,0,0,0,2.189,2.1888,2.1777,2.1776,2.1774,2.1666,2.1665,2.1663,2.1555,2.1554,2.1552,2.155,2.1433,2.1431,2.1429,0,0,0,0,0,0,0,0,0,0,0,0,0,2.1816,2.1888,2.1777,2.1708,2.17,2.1666,2.1664,2.1663,2.1556,2.1554,2.1552,2.155,2.1434,2.1431,2.1428,2.1453,0,0,2.142,2.1419,0,0,0,0,0,0,0,0,2.182,2.1812,2.1719,2.1712,2.1704,2.1622,2.1661,2.1592,2.1556,2.161,2.1551,2.1549,2.1497,2.1489,2.1472,2.1447,2.1442,2.142,2.1418,2.1417,2.1416,0,0,0,0,0,0,0,2.1826,2.1816,2.1733,2.1718,2.1709,2.168,2.1667,2.1647,2.1567,2.1606,2.1597,2.1586,2.1492,2.1475,2.1469,2.144,2.142,2.1417,2.1415,2.1414,2.1427,2.1429,0,0,0,0,0,0,2.1842,2.1821,2.1736,2.1729,2.1758,2.168,2.1665,2.1651,2.1567,2.1552,2.1588,2.1581,2.1481,2.1472,2.1464,2.1487,2.1417,2.1414,2.1412,2.1425,2.1428,2.143,0,0,0,0,0,0,2.1845,2.1836,2.1741,2.1773,2.1759,2.168,2.1664,2.1649,2.1632,2.1553,2.1538,2.1586,2.1479,2.1468,2.1456,2.1481,2.1413,2.141,2.1423,2.1426,2.1429,2.1533,0,0,0,0,0,0,2.1849,2.1837,2.1848,2.1774,2.1758,2.1737,2.1666,2.1649,2.1629,2.1619,2.1547,2.1533,2.1477,2.1461,2.1454,2.1476,2.1408,2.142,2.1424,2.1428,2.1527,2.1539,2.1549,0,0,0,0,0,2.1853,2.188,2.1849,2.1839,2.1769,2.1739,2.1729,2.1665,2.1631,2.164,2.1588,2.1536,2.1479,2.1461,2.1451,2.1474,2.1418,2.1423,2.1427,2.1522,2.1537,2.1549,0,0,0,0,0,0,2.1958,2.187,2.1833,2.1838,2.1797,2.1721,2.173,2.1683,2.1649,2.1642,2.1561,2.1546,2.1543,2.1506,2.1487,2.1491,2.1441,2.1444,2.1516,2.153,2.1541,2.155,2.1406,0,0,0,0,0,2.1982,2.1966,2.1889,2.1901,2.1882,2.181,2.1794,2.1748,2.1702,2.1683,2.1631,2.1586,2.1558,2.1541,2.1511,2.152,2.1502,2.153,2.1542,2.1551,2.1555,2.1556,2.1567,2.1445,2.1445,2.1445,0,0,2.203,2.198,2.1975,2.1921,2.1883,2.1868,2.1796,2.1782,2.1769,2.168,2.1667,2.1627,2.1571,2.157,2.1566,2.1539,2.1585,2.1557,2.1565,2.1564,2.1562,2.1573,2.1584,2.1448,2.1447,2.1447,0,0,2.2111,2.2072,2.2078,2.2042,2.1986,2.1937,2.1939,2.1869,2.184,2.1825,2.1757,2.1739,2.1693,2.1656,2.1631,2.1696,2.1646,2.1688,2.1747,2.1749,2.1759,2.1767,2.179,2.1799,2.1691,2.1692,2.1692,0,2.2179,2.2154,2.2086,2.2077,2.2054,2.1973,2.1977,2.1944,2.1881,2.1867,2.1837,2.1776,2.1733,2.1722,2.1737,2.172,2.1717,2.1696,2.1763,2.177,2.1777,2.1798,2.1807,2.1697,2.1696,2.1696,2.1695,0,2.224,2.2223,2.2234,2.2177,2.2155,2.2152,2.2081,2.2066,2.2021,2.1975,2.196,2.1905,2.1862,2.1855,2.181,2.1836,2.1821,2.1778,2.1726,2.1796,2.1814,2.1821,2.1705,2.1703,2.1701,2.17,0,0,2.2386,2.229,2.2295,2.2268,2.2199,2.2185,2.2177,2.2136,2.2125,2.2083,2.2074,2.2035,2.1995,2.1967,2.1917,2.1918,2.1972,2.1875,2.1872,2.1895,2.1996,2.203,2.2041,2.1938,2.1939,2.194,2.2001,0,2.2456,2.244,2.2377,2.2379,2.2362,2.2284,2.2277,2.2233,2.2189,2.2167,2.2116,2.2091,2.204,2.2022,2.202,2.1967,2.1992,2.1961,2.1927,2.1927,2.1946,2.205,2.2086,2.2147,2.2008,2.2009,2.201,0,2.2536,2.2501,2.2502,2.2434,2.2424,2.242,2.2376,2.2356,2.2304,2.2272,2.224,2.2184,2.2169,2.212,2.2097,2.2077,2.2059,2.203,2.2031,2.2027,2.1974,2.205,2.2165,2.2175,2.2021,2.202,2.2019,0,2.2643,2.2596,2.259,2.2569,2.2489,2.2487,2.2453,2.2399,2.2378,2.2339,2.2325,2.2284,2.2262,2.223,2.2164,2.2134,2.2148,2.2094,2.212,2.2122,2.2128,2.2129,2.2243,2.2114,2.2114,2.2114,2.2114,0,2.2729,2.2733,2.2637,2.2634,2.2635,2.2561,2.2563,2.2521,2.2474,2.2459,2.2387,2.2375,2.2288,2.2264,2.2211,2.22,2.219,2.2163,2.2149,2.217,2.2174,2.2158,2.2153,2.2116,2.2116,2.2116,2.2115,0,2.2849,2.2786,2.2775,2.27,2.2681,2.2685,2.2619,2.2612,2.2563,2.2545,2.2536,2.2459,2.2427,2.2358,2.2307,2.2271,2.2273,2.2248,2.2292,2.2284,2.2314,2.2313,2.2424,2.2435,2.2299,2.23,2.2301,0,2.2909,2.291,2.2836,2.2822,2.2791,2.277,2.2748,2.2674,2.2654,2.2594,2.2593,2.2556,2.2524,2.2476,2.2414,2.2374,2.2348,2.2389,2.2341,2.2362,2.2349,2.2351,2.235,2.24,2.2402,2.2404,2.2405,0,2.3022,2.299,2.2963,2.2925,2.2902,2.2867,2.2829,2.2821,2.2737,2.2718,2.2686,2.266,2.2609,2.2573,2.2523,2.2485,2.2431,2.242,2.2424,2.2447,2.2473,2.246,2.2323,2.2419,2.2417,2.2416,2.2415,2.2415,2.3114,2.3111,2.3059,2.303,2.2994,2.2959,2.2949,2.2898,2.2871,2.2825,2.2782,2.2754,2.2699,2.2627,2.2593,2.2568,2.2541,2.2547,2.2548,2.2551,2.2561,2.2476,2.2558,2.2558,2.2557,2.2557,2.2556,0,2.3223,2.3186,2.316,2.311,2.3087,2.3039,2.2993,2.2977,2.2954,2.2908,2.2878,2.284,2.2804,2.2739,2.2696,2.2689,2.2663,2.2681,2.2681,2.2673,2.2587,2.2588,2.2703,2.2703,2.2702,2.2702,2.2702,2.2702,2.3278,2.3271,2.3233,2.3206,2.3167,2.3141,2.3119,2.3086,2.305,2.3012,2.2983,2.294,2.2886,2.2839,2.2803,2.2784,2.2772,2.2798,2.2772,2.2693,2.2679,2.2666,2.2667,2.2796,2.2796,2.286,2.2861,2.2861]}]]